{"data":{"norad_id":51733,"epoch":"2026-09-20T04:27:28.348128Z","epoch_age_seconds":78742,"freshness":"FRESH","line1":"1 51733U 22016V   26263.18574477  .00001181  00000+0  46081-4 0  9995","line2":"2 51733  53.1588 150.9637 0001220  83.2475 276.8667 15.34396542253134","mean_motion":15.34396542,"eccentricity":0.000122,"inclination_deg":53.1588,"raan_deg":150.9637,"arg_perigee_deg":83.2475,"mean_anomaly_deg":276.8667,"bstar":4.6081e-5,"rev_number":25313,"period_min":93.847969581777,"perigee_km":461.87893436794,"apogee_km":463.54810189436,"semimajor_km":6840.8505181311,"source":"CELESTRAK","updated_at":"2026-09-20T09:00:39.929738Z"}}